Location: St. Louis
(38.6270°N, 90.1994°W)
Time: 09:52:46
(UTC-06:00)

SR - Pass Details

Date: 29 November 2021
Orbit: 582 x 872 km, 66.7° (Epoch: 21 January)

Event Time Altitude Azimuth Distance (km) Brightness Sun altitude
Rises 09:38:45 0° 330° (NNW) 2,826 ? 22.5°
Reaches altitude 10° 09:40:57 10° 329° (NNW) 1,939 ? 22.7°
Maximum altitude 09:45:17 81° 244° (WSW) 632 ? 23.1°
Drops below altitude 10° 09:49:53 10° 157° (SSE) 2,051 ? 23.6°
Sets 09:52:15 0° 156° (SSE) 3,004 ? 23.8°
